SL-12 DEB, 41806

Orbit data source: Space-Track

SL-12 DEB, 41806 is space debris in HEO originally from a launch on Mon, 25 Dec 2006 UTC launched from the Tyuratam Missile And Space Complex (TTMTR). Debris objects in space refer to the collection of defunct objects orbiting the Earth. Examples of debris include non-operational satellites, rocket bodies, and fragments generated from explosions, collisions, or faulty payload assembly.

Loading next visibility...
SL-12 DEB details
Identifier
41806, 2006-062L
Orbit
HEO
Last TLE update14 hours ago
Origin
Flag of CISVVKO VKS (CIS)
ManufacturerRKKE
MissionSpacecraft
Bus & MotorUnknown
MassUnknown
Launch date (UTC)
2006-12-25 (18 years ago)
Launch vehicleUnknown
Launch site
Tyuratam Missile And Space Complex (TTMTR)
Object type
Payload
Rocket body
Debris
Shape & HBRUnknown
Radar Cross SectionMedium (>0.1 m² and <1 m²)

Expand to show TLE details & history

TLE from 14 hours ago
0 SL-12 DEB
1 41806U 06062L   24360.87896358  .00000217  00000-0  68293-3 0  9993
2 41806  64.3049 220.0546 5762151 329.9097   6.9432  4.14207791126796
Epoch: 2024-12-25T21:05Z
Definitive object data (Epoch: 2024-12-25T21:05:42.453Z)
Latitude0.00006°
Longitude168.76749°
Altitude928.902 km
Speed9.208 km/s
True Right ascension14h 40m 14s
True Declination0° 00' 00"
Sunlit
Object was in daylight at TLE epoch
Visualization TLE readout
Latitude39.0174°
Longitude-34.35781°
Altitude18,403.649 km
Speed2.8 km/s
Apparent Right ascension00h 33m 15s
Apparent Declination26° 34' 56"
Sunlit
Object is in daylight
Visualization observer readout
Local Sidereal Time10:08:48
Azimuth326.845° NNW
Elevation-15.486°
Doppler factor1
Orbital elements
Apogee altitude19,435.168 km
Perigee altitude562.089 km
Semi-major axis16,376.765 km
Eccentricity0.5762151
Inclination64.3049°
RAAN220.0546°
Arg. of periapsis329.9097°
True anomaly30.50812°
Mean anomaly6.9432°
Eccentric anomaly16.09699°
Mean motion1.03562 °/min
BSTAR0.00068293
Orbital period347.62 mins
Loading maneuver chart data...
Loading historical data...
Loading historical data...
Loading historical data...
Loading historical data...
Loading historical data...
Loading historical data...
Loading historical data...

SL-12 DEB Visibility forecast

Observer location: undefined°, undefined

Span
Click to sort rows by Start time (UTC) header in descending order
Start Az.
Max El. time (UTC)
Max El. Az.
Max El.
End time (UTC)
End Az.
37 mins2024-12-26 14:34:34.333Z131.059° SE2024-12-26 14:42:34.333Z77.707° E26.504°2024-12-26 15:11:34.333Z31.774° NE
245 mins2024-12-26 20:32:34.333Z294.905° NW2024-12-26 21:02:34.333Z11.056° NNE37.538°2024-12-27 00:37:34.333Z129.769° SE
219 mins2024-12-27 02:44:34.333Z327.36° NNW2024-12-27 04:03:34.333Z284.765° WNW38.551°2024-12-27 06:23:34.333Z232.24° WSW
|